Retour au catalogue

COSMOS 1710

GLONASS

ActifNavigationMEO
NORAD 16396·PAYLOAD·🇷🇺 Russia

Lancé Dec 24, 1985 depuis Baikonur Cosmodrome

Loading…

Prochains Passages (prochaines 24 heures)

TLE

FraisSource: Space-Track

Époque: Sep 11, 2026, 05:29 UTC

1 16396U 85118A   26254.22878286 -.00000053  00000-0  00000-0 0  9999
2 16396  65.9993 321.3929 0014030 200.9652 157.6906  2.13103299316957

Suivez COSMOS 1710 en temps réel avec AllMySat

Download on the App Store